Location: Unspecified
(0.0000°N, 0.0000°E)
Time: 13:53:14
(UTC+00:00)

Explorer 7 - Pass Details

Date: 24 November 2019
Orbit: 485 x 680 km, 50.3° (Epoch: 08 December)

Event Time Altitude Azimuth Distance (km) Brightness Sun altitude
Rises 18:20:34 0° 206° (SSW) 2,967 11.3 -7.9°
Reaches altitude 10° 18:22:57 10° 199° (SSW) 2,076 10.4 -8.5°
Maximum altitude 18:27:34 45° 127° (SE) 908 7.7 -9.6°
Enters shadow 18:31:41 13° 56° (NE) 1,904 8.9 -10.5°
